Regional Weather Roundup
Issued by NWS

Home | Current Version | Previous Version | Text Only | Print | Product List | Glossary On
Versions: 1 2 3 4 5 6 7 8 9 10 11 12 13 14 15 16 17 18 19 20 21 22 23 24 25 26 27 28 29 30 31 32 33 34 35 36 37 38 39 40 41 42 43 44 45 46 47 48 49 50
000
ASUS44 KLIX 221010
RWRLA
LOUISIANA WEATHER ROUNDUP
NATIONAL WEATHER SERVICE NEW ORLEANS LA
400 AM CST SAT NOV 22 2014

NOTE: "FAIR" INDICATES FEW OR NO CLOUDS BELOW 12,000 FEET WITH NO
      SIGNIFICANT WEATHER AND/OR OBSTRUCTIONS TO VISIBILITY.
      SKY/WX - SKY CONDITION AND SIGNIFICANT WEATHER.
      TMP - AIR TEMPERATURE.    DP   - DEWPOINT TEMPERATURE.
      RH  - RELATIVE HUMIDITY.  PRES - PRESSURE.
      HX  - HEAT INDEX.         WCI  - WIND CHILL INDEX.

*  THESE STATIONS ARE NOT NWS OR FAA STATIONS AND ARE NOT UNDER
   NWS QUALITY CONTROL.

LAZ040-048-061>063-065-066-069-221100-
SOUTHEAST LOUISIANA

CITY           SKY/WX    TMP DP  RH WIND       PRES   REMARKS
N.O. AUDUBON   NOT AVBL
N.O. INTL ARPT CLEAR     54  50  86 NE6       30.22S
N.O. LAKEFRONT CLEAR     56  51  84 E10       30.22F
N.O. DOWNTOWN* FAIR      57  50  77 NE10      30.22F
SLIDELL        CLEAR     51  46  83 E5        30.23F
BATON ROUGE    MOCLDY    52  49  89 E7        30.22F
BOOTHVILLE     CLEAR     61  57  87 E3        30.20F
BELLE CHASSE   CLEAR     52  48  86 NE8       30.20F
BOGALUSA*        N/A     43  40  89 CALM      30.27R
NEW ROADS*     CLOUDY    55  50  82 E3        30.21F
GONZALES*      FAIR      52  52 100 CALM      30.21F
HAMMOND*       CLEAR     52  46  82 NE3       30.25S
HOUMA*         CLEAR     53  51  94 NE6       30.19F
PORT FOURCHON* PTSUNNY   63  59  88 NE8       30.20F

$$

LAZ041-044-053-054-221100-
SOUTHWEST LOUISIANA

CITY           SKY/WX    TMP DP  RH WIND       PRES   REMARKS
LAKE CHARLES   CLEAR     55  49  80 E9        30.16F
LAFAYETTE      MOCLDY    55  50  83 CALM      30.20F
PATTERSON      PTCLDY    54  50  87 NE8       30.21F
SALT POINT       N/A     56  51  84 CALM      30.17F
NEW IBERIA     CLOUDY    56  51  84 E7        30.19F
CHENAULT AIRPK NOT AVBL

$$

LAZ027-028-221100-
CENTRAL LOUISIANA

CITY           SKY/WX    TMP DP  RH WIND       PRES   REMARKS
FORT POLK      NOT AVBL
ALEXANDRIA INT CLOUDY    58  50  75 SE7       30.19F
ALEXANDRIA     CLOUDY    58  51  78 E5        30.21F

$$

LAZ001-002-221100-
NORTHWEST LOUISIANA

CITY           SKY/WX    TMP DP  RH WIND       PRES   REMARKS
SHREVEPORT     MOCLDY    57  53  86 SE13      30.16F
BARKSDALE AFB  CLOUDY    56  54  91 SE6       30.17F
DTN SHREVEPORT CLOUDY    57  51  80 E5        30.17F

$$

LAZ014-016-221100-
NORTHEAST LOUISIANA

CITY           SKY/WX    TMP DP  RH WIND       PRES   REMARKS
MONROE         CLOUDY    58  51  78 E6        30.24F
TALLULAH       CLOUDY    54  47  77 NE3       30.26F

$$




USA.gov is the U.S. government's official web portal to all federal, state and local government web resources and services.